This is the latest recevied weather packets stored in our database for station/object SR4DIG-13. If no packets are shown the sender has not sent any weather packets the latest 10 day(s).
| Time | Temp. | Humidity | Pressure | Rain* | Wind** | Luminosity | Snow |
|---|---|---|---|---|---|---|---|
| 1787849428 | 20° C | 52% | 1023.5 hPa | 0 mm | - | - | - |
| 1787849127 | 20.56° C | 52% | 1023.5 hPa | 0 mm | - | - | - |
| 1787848526 | 20.56° C | 51% | 1023.5 hPa | 0 mm | - | - | - |
| 1787848225 | 20.56° C | 51% | 1023.6 hPa | 0 mm | - | - | - |
| 1787847924 | 20.56° C | 50% | 1023.6 hPa | 0 mm | - | - | - |
| 1787847623 | 20.56° C | 50% | 1023.6 hPa | 0 mm | - | - | - |
| 1787847322 | 21.11° C | 49% | 1023.5 hPa | 0 mm | - | - | - |
| 1787847021 | 21.11° C | 49% | 1023.7 hPa | 0 mm | - | - | - |
| 1787846720 | 21.11° C | 49% | 1023.5 hPa | 0 mm | - | - | - |
| 1787846419 | 21.11° C | 49% | 1023.5 hPa | 0 mm | - | - | - |
| 1787846118 | 21.11° C | 48% | 1023.6 hPa | 0 mm | - | - | - |
| 1787845817 | 21.67° C | 48% | 1023.7 hPa | 0 mm | - | - | - |
| 1787845517 | 21.67° C | 48% | 1023.6 hPa | 0 mm | - | - | - |
| 1787844872 | 21.67° C | 48% | 1023.7 hPa | 0 mm | - | - | - |
| 1787844571 | 21.67° C | 48% | 1023.8 hPa | 0 mm | - | - | - |
| 1787844270 | 21.67° C | 48% | 1023.7 hPa | 0 mm | - | - | - |
| 1787843969 | 21.67° C | 48% | 1023.8 hPa | 0 mm | - | - | - |
| 1787843668 | 21.67° C | 47% | 1023.8 hPa | 0 mm | - | - | - |
| 1787843367 | 21.67° C | 47% | 1023.7 hPa | 0 mm | - | - | - |
| 1787843066 | 21.11° C | 47% | 1023.7 hPa | 0 mm | - | - | - |
| 1787842765 | 21.67° C | 47% | 1023.7 hPa | 0 mm | - | - | - |
| 1787842464 | 21.67° C | 47% | 1023.6 hPa | 0 mm | - | - | - |
| 1787842163 | 21.67° C | 47% | 1023.6 hPa | 0 mm | - | - | - |
| 1787841862 | 22.22° C | 46% | 1023.7 hPa | 0 mm | - | - | - |
| 1787841561 | 22.22° C | 46% | 1023.7 hPa | 0 mm | - | - | - |
* Rain latest hour (hover to see other rain measurements)
** Current wind speed in m/s (hover to see current wind gust speed)